Location: Alexandria
(38.8050°N, 77.0470°W)
Time: 11:33:19
(UTC-04:00)

Vanguard 1 - Visible Passes

Search period start: 22 June 2018 00:00
Search period end: 02 July 2018 00:00
Orbit: 650 x 3833 km, 34.3° (Epoch: 21 June)

Date Brightness Start Highest point End Pass type
(mag) Time Alt. Az. Time Alt. Az. Time Alt. Az.
23 Jun 12.5 04:06:47 10° SSE 04:10:25 13° SE 04:14:55 10° ESE visible
24 Jun 12.2 04:25:15 10° S 04:30:33 20° SE 04:38:10 10° E visible
25 Jun 12.0 04:44:44 10° SSW 04:50:49 28° SE 05:00:28 10° E visible
26 Jun 11.8 05:04:41 10° SSW 05:11:14 37° SE 05:22:23 10° E visible
28 Jun 11.8 03:30:52 13° SSE 03:33:22 16° SE 03:38:14 10° E visible
29 Jun 11.5 03:50:39 17° S 03:53:39 24° SE 04:00:34 10° E visible
30 Jun 11.3 04:10:25 18° SSW 04:14:05 32° SE 04:22:25 10° E visible
01 Jul 11.1 04:30:10 17° SW 04:34:39 42° SSE 04:44:03 10° E visible
